• In Hungary
  • List of Countries
  • For 7 days
  • Water Temperature
  • Satellite Maps
  • Weather Map
  • News
  • Weather Widgets
  • user-avatar
    Login

    Hourly Weather Statesville

    Today, 20 January, Saturday

    Time Temperature Precipitation Wind Pressure Humidity
    00:00 0°C° 0 mm 1 mps 742 mmHg 81%
    01:00 0°C° 0 mm 1 mps 742 mmHg 79%
    02:00 0°C° 0 mm 1 mps 742 mmHg 79%
    03:00 0°C° 0 mm 1 mps 742 mmHg 78%
    04:00 0°C° 0 mm 1 mps 742 mmHg 77%
    05:00 0°C° 0 mm 1 mps 742 mmHg 76%
    06:00 0°C° 0 mm 1 mps 742 mmHg 76%
    07:00 0°C° 0 mm 1 mps 742 mmHg 75%
    08:00 +2°C° 0 mm 1 mps 742 mmHg 72%
    09:00 +4°C° 0 mm 1 mps 743 mmHg 69%
    10:00 +6°C° 0 mm 1 mps 743 mmHg 66%
    11:00 +8°C° 0 mm 1 mps 743 mmHg 65%
    12:00 +10°C° 0 mm 1 mps 742 mmHg 65%
    13:00 +12°C° 0 mm 2 mps 742 mmHg 64%
    14:00 +12°C° 0 mm 1 mps 742 mmHg 69%
    15:00 +12°C° 0 mm 1 mps 742 mmHg 74%
    16:00 +12°C° 0 mm 1 mps 742 mmHg 79%
    17:00 +10°C° 0 mm 1 mps 742 mmHg 82%
    18:00 +8°C° 0 mm 1 mps 742 mmHg 86%
    19:00 +6°C° 0 mm 1 mps 743 mmHg 89%
    20:00 +5°C° 0 mm 1 mps 743 mmHg 89%
    21:00 +5°C° 0 mm 1 mps 743 mmHg 90%
    22:00 +5°C° 0 mm 1 mps 743 mmHg 90%
    23:00 +4°C° 0 mm 1 mps 743 mmHg 91%

    Tomorrow, 21 January, Sunday

    Time Temperature Precipitation Wind Pressure Humidity
    00:00 +4°C° 0 mm 1 mps 743 mmHg 91%
    01:00 +4°C° 0 mm 1 mps 743 mmHg 91%
    02:00 +4°C° 0 mm 1 mps 743 mmHg 91%
    03:00 +4°C° 0 mm 1 mps 743 mmHg 92%
    04:00 +4°C° 0 mm 1 mps 743 mmHg 92%
    05:00 +4°C° 0 mm 1 mps 743 mmHg 92%
    06:00 +4°C° 0 mm 1 mps 744 mmHg 91%
    07:00 +3°C° 0 mm 0 mps 744 mmHg 91%
    08:00 +5°C° 0 mm 0 mps 744 mmHg 87%
    09:00 +7°C° 0 mm 0 mps 744 mmHg 84%
    10:00 +9°C° 0 mm 0 mps 745 mmHg 80%
    11:00 +11°C° 0 mm 1 mps 744 mmHg 77%
    12:00 +13°C° 0 mm 1 mps 744 mmHg 74%
    13:00 +15°C° 0 mm 2 mps 743 mmHg 71%
    14:00 +15°C° 0 mm 2 mps 743 mmHg 73%
    15:00 +15°C° 0 mm 2 mps 743 mmHg 74%
    16:00 +15°C° 0 mm 2 mps 742 mmHg 76%
    17:00 +13°C° 0 mm 1 mps 743 mmHg 81%
    18:00 +11°C° 0 mm 1 mps 743 mmHg 86%
    19:00 +9°C° 0 mm 1 mps 743 mmHg 91%
    20:00 +9°C° 0 mm 1 mps 743 mmHg 91%
    21:00 +8°C° 0 mm 1 mps 744 mmHg 92%
    22:00 +8°C° 0 mm 1 mps 744 mmHg 92%
    23:00 +8°C° 0 mm 1 mps 743 mmHg 93%

    Day after tomorrow, 22 January, Monday

    Time Temperature Precipitation Wind Pressure Humidity
    00:00 +7°C° 0 mm 1 mps 743 mmHg 93%
    01:00 +7°C° 0 mm 1 mps 743 mmHg 94%
    02:00 +7°C° 0 mm 1 mps 743 mmHg 94%
    03:00 +7°C° 0 mm 1 mps 743 mmHg 95%
    04:00 +7°C° 0 mm 1 mps 742 mmHg 95%
    05:00 +7°C° 0 mm 1 mps 742 mmHg 96%
    06:00 +6°C° 0 mm 1 mps 742 mmHg 96%
    07:00 +6°C° 0 mm 1 mps 742 mmHg 96%
    08:00 +8°C° 0 mm 1 mps 742 mmHg 94%
    09:00 +8°C° 0 mm 2 mps 742 mmHg 92%
    10:00 +9°C° 0 mm 2 mps 742 mmHg 89%
    11:00 +10°C° 0 mm 2 mps 741 mmHg 85%
    12:00 +12°C° 0 mm 3 mps 741 mmHg 80%
    13:00 +13°C° 0 mm 3 mps 740 mmHg 75%
    14:00 +13°C° 0 mm 3 mps 739 mmHg 75%
    15:00 +13°C° 0 mm 3 mps 739 mmHg 76%
    16:00 +14°C° 0 mm 2 mps 738 mmHg 76%
    17:00 +12°C° 0.2 mm 3 mps 738 mmHg 80%
    18:00 +12°C° 0.2 mm 3 mps 737 mmHg 84%
    19:00 +11°C° 0.2 mm 3 mps 737 mmHg 87%
    20:00 +12°C° 0.6 mm 4 mps 736 mmHg 88%
    21:00 +13°C° 0.6 mm 5 mps 736 mmHg 89%
    22:00 +14°C° 0.6 mm 6 mps 735 mmHg 90%
    23:00 +13°C° 0.9 mm 6 mps 735 mmHg 89%

    23 January, Tuesday

    Time Temperature Precipitation Wind Pressure Humidity
    00:00 +13°C° 0.9 mm 6 mps 735 mmHg 88%
    01:00 +13°C° 0.9 mm 5 mps 735 mmHg 87%
    02:00 +10°C° 0 mm 5 mps 735 mmHg 85%
    03:00 +10°C° 0 mm 4 mps 735 mmHg 82%
    04:00 +7°C° 0 mm 4 mps 735 mmHg 80%
    05:00 +6°C° 0 mm 4 mps 736 mmHg 81%
    06:00 +5°C° 0 mm 3 mps 736 mmHg 83%
    07:00 +4°C° 0 mm 3 mps 737 mmHg 85%
    08:00 +5°C° 0 mm 3 mps 737 mmHg 78%
    09:00 +6°C° 0 mm 4 mps 738 mmHg 72%
    10:00 +7°C° 0 mm 4 mps 739 mmHg 65%
    11:00 +8°C° 0 mm 4 mps 739 mmHg 60%
    12:00 +10°C° 0 mm 4 mps 739 mmHg 55%
    13:00 +11°C° 0 mm 4 mps 739 mmHg 49%
    14:00 +11°C° 0 mm 4 mps 739 mmHg 48%
    15:00 +11°C° 0 mm 4 mps 739 mmHg 47%
    16:00 +11°C° 0 mm 4 mps 739 mmHg 46%
    17:00 +9°C° 0 mm 3 mps 740 mmHg 51%
    18:00 +7°C° 0 mm 3 mps 740 mmHg 57%
    19:00 +5°C° 0 mm 2 mps 741 mmHg 62%
    20:00 +4°C° 0 mm 2 mps 742 mmHg 63%
    21:00 +4°C° 0 mm 2 mps 742 mmHg 65%
    22:00 +4°C° 0 mm 1 mps 742 mmHg 66%
    23:00 +4°C° 0 mm 1 mps 743 mmHg 68%

    24 January, Wednesday

    Time Temperature Precipitation Wind Pressure Humidity
    00:00 +3°C° 0 mm 1 mps 743 mmHg 70%
    01:00 +3°C° 0 mm 1 mps 743 mmHg 73%
    02:00 +2°C° 0 mm 1 mps 744 mmHg 74%
    03:00 +2°C° 0 mm 1 mps 744 mmHg 74%
    04:00 +2°C° 0 mm 1 mps 744 mmHg 75%
    05:00 +2°C° 0 mm 1 mps 745 mmHg 76%
    06:00 +1°C° 0 mm 1 mps 745 mmHg 76%
    07:00 +1°C° 0 mm 1 mps 746 mmHg 77%
    08:00 +3°C° 0 mm 1 mps 746 mmHg 69%
    09:00 +5°C° 0 mm 1 mps 747 mmHg 61%
    10:00 +7°C° 0 mm 1 mps 747 mmHg 54%
    11:00 +8°C° 0 mm 1 mps 747 mmHg 48%
    12:00 +10°C° 0 mm 1 mps 746 mmHg 42%
    13:00 +12°C° 0 mm 2 mps 746 mmHg 36%
    14:00 +12°C° 0 mm 1 mps 746 mmHg 37%
    15:00 +12°C° 0 mm 1 mps 745 mmHg 38%
    16:00 +13°C° 0 mm 1 mps 745 mmHg 39%
    17:00 +10°C° 0 mm 1 mps 746 mmHg 44%
    18:00 +8°C° 0 mm 1 mps 746 mmHg 50%
    19:00 +6°C° 0 mm 1 mps 746 mmHg 55%
    20:00 +6°C° 0 mm 1 mps 747 mmHg 57%
    21:00 +5°C° 0 mm 1 mps 747 mmHg 59%
    22:00 +5°C° 0 mm 1 mps 748 mmHg 61%
    23:00 +4°C° 0 mm 1 mps 747 mmHg 62%

    25 January, Thursday

    Time Temperature Precipitation Wind Pressure Humidity
    00:00 +4°C° 0 mm 1 mps 747 mmHg 64%
    01:00 +4°C° 0 mm 1 mps 747 mmHg 65%
    02:00 +4°C° 0 mm 1 mps 747 mmHg 65%
    03:00 +4°C° 0 mm 1 mps 747 mmHg 65%
    04:00 +4°C° 0 mm 1 mps 748 mmHg 64%
    05:00 +4°C° 0 mm 1 mps 748 mmHg 66%
    06:00 +3°C° 0 mm 1 mps 749 mmHg 67%
    07:00 +3°C° 0 mm 1 mps 749 mmHg 69%
    08:00 +4°C° 0 mm 1 mps 749 mmHg 65%
    09:00 +5°C° 0 mm 1 mps 750 mmHg 62%
    10:00 +6°C° 0 mm 1 mps 750 mmHg 59%
    11:00 +8°C° 0 mm 1 mps 750 mmHg 54%
    12:00 +9°C° 0 mm 1 mps 750 mmHg 48%
    13:00 +11°C° 0 mm 1 mps 750 mmHg 43%
    14:00 +11°C° 0 mm 1 mps 750 mmHg 43%
    15:00 +11°C° 0 mm 1 mps 749 mmHg 42%
    16:00 +11°C° 0 mm 1 mps 749 mmHg 42%
    17:00 +8°C° 0 mm 0 mps 750 mmHg 49%
    18:00 +6°C° 0 mm 0 mps 750 mmHg 55%
    19:00 +4°C° 0 mm 0 mps 750 mmHg 62%
    20:00 +4°C° 0 mm 0 mps 751 mmHg 64%
    21:00 +4°C° 0 mm 1 mps 751 mmHg 66%
    22:00 +4°C° 0 mm 1 mps 751 mmHg 68%
    23:00 +3°C° 0 mm 1 mps 751 mmHg 69%
    Show more